Location: LDNL
(36.4545°S, 141.6685°E)
Time: 09:43:29
(UTC+11:00)

Courier 1B - Pass Details

Date: 09 February 2023
Orbit: 962 x 1209 km, 28.3° (Epoch: 21 March)

Event Time Altitude Azimuth Distance (km) Brightness Sun altitude
Rises 21:44:08 0° 329° (NNW) 3,699 10.6 -13.2°
Reaches altitude 10° 21:47:43 10° 348° (NNW) 2,793 9.7 -13.8°
Maximum altitude 21:51:59 18° 27° (NNE) 2,341 9.0 -14.6°
Enters shadow 21:52:45 17° 35° (NE) 2,369 9.0 -14.7°
